When you browse on this site, cookies collect data to enhance your experience and personalize the content and advertising you see.
Visit our Privacy Policy to learn more. By continuing to use the site, you agree to this use of cookies and data.
  • In Hungary
  • List of Countries
  • For 7 days
  • Water Temperature
  • Weather Map
  • News
  • Weather Widgets
  • user-avatar
    Login

    Hourly Weather Aluksne

    Today, 10 December, Tuesday

    Time Temperature Precipitation Wind Pressure Humidity
    00:00 +3°C° 0 mm 4 mps 732 mmHg 82%
    01:00 +1°C° 0 mm 4 mps 732 mmHg 85%
    02:00 +1°C° 0 mm 4 mps 733 mmHg 87%
    03:00 +1°C° 0 mm 4 mps 733 mmHg 87%
    04:00 +1°C° 0 mm 4 mps 733 mmHg 87%
    05:00 +1°C° 0 mm 4 mps 734 mmHg 88%
    06:00 +1°C° 0 mm 4 mps 734 mmHg 89%
    07:00 0°C° 0 mm 4 mps 734 mmHg 90%
    08:00 0°C° 0 mm 4 mps 734 mmHg 89%
    09:00 +1°C° 0 mm 4 mps 735 mmHg 89%
    10:00 +1°C° 0 mm 4 mps 735 mmHg 89%
    11:00 +1°C° 0 mm 4 mps 735 mmHg 89%
    12:00 +2°C° 0.3 mm 3 mps 736 mmHg 91%
    13:00 +2°C° 0.3 mm 3 mps 736 mmHg 92%
    14:00 +2°C° 0 mm 3 mps 737 mmHg 94%
    15:00 +1°C° 0.5 mm 3 mps 738 mmHg 94%
    16:00 +1°C° 0.5 mm 3 mps 738 mmHg 94%
    17:00 0°C° 0.5 mm 3 mps 739 mmHg 93%
    18:00 -1°C° 0.1 mm 3 mps 740 mmHg 90%
    19:00 -1°C° 0.1 mm 3 mps 741 mmHg 86%
    20:00 -2°C° 0.1 mm 3 mps 742 mmHg 83%
    21:00 -2°C° 0 mm 2 mps 742 mmHg 85%
    22:00 -3°C° 0 mm 2 mps 743 mmHg 87%
    23:00 -2°C° 0 mm 1 mps 744 mmHg 89%

    Tomorrow, 11 December, Wednesday

    Time Temperature Precipitation Wind Pressure Humidity
    00:00 -2°C° 0 mm 1 mps 744 mmHg 89%
    01:00 -2°C° 0 mm 1 mps 745 mmHg 89%
    02:00 -2°C° 0 mm 1 mps 746 mmHg 89%
    03:00 -2°C° 0 mm 1 mps 746 mmHg 88%
    04:00 -3°C° 0 mm 0 mps 746 mmHg 87%
    05:00 -3°C° 0 mm 0 mps 746 mmHg 87%
    06:00 -2°C° 0 mm 1 mps 746 mmHg 85%
    07:00 -2°C° 0 mm 1 mps 746 mmHg 84%
    08:00 -2°C° 0 mm 1 mps 746 mmHg 82%
    09:00 -3°C° 0 mm 2 mps 746 mmHg 80%
    10:00 -3°C° 0 mm 2 mps 746 mmHg 77%
    11:00 -4°C° 0 mm 3 mps 746 mmHg 74%
    12:00 -4°C° 0 mm 3 mps 746 mmHg 73%
    13:00 -4°C° 0 mm 3 mps 746 mmHg 71%
    14:00 -2°C° 0 mm 3 mps 745 mmHg 69%
    15:00 -4°C° 0 mm 3 mps 745 mmHg 71%
    16:00 -4°C° 0 mm 3 mps 745 mmHg 74%
    17:00 -4°C° 0 mm 3 mps 744 mmHg 76%
    18:00 -4°C° 0 mm 3 mps 744 mmHg 78%
    19:00 -4°C° 0 mm 3 mps 744 mmHg 80%
    20:00 -4°C° 0 mm 4 mps 744 mmHg 82%
    21:00 -4°C° 0 mm 4 mps 744 mmHg 84%
    22:00 -4°C° 0 mm 4 mps 744 mmHg 87%
    23:00 -4°C° 0 mm 4 mps 744 mmHg 89%

    Day after tomorrow, 12 December, Thursday

    Time Temperature Precipitation Wind Pressure Humidity
    00:00 -3°C° 0 mm 4 mps 744 mmHg 88%
    01:00 -3°C° 0 mm 4 mps 744 mmHg 87%
    02:00 -3°C° 0 mm 4 mps 743 mmHg 86%
    03:00 -3°C° 0 mm 4 mps 743 mmHg 84%
    04:00 -3°C° 0 mm 4 mps 743 mmHg 82%
    05:00 -3°C° 0 mm 4 mps 742 mmHg 80%
    06:00 -2°C° 0 mm 3 mps 742 mmHg 81%
    07:00 -4°C° 0 mm 3 mps 742 mmHg 82%
    08:00 -4°C° 0 mm 3 mps 742 mmHg 83%
    09:00 -4°C° 0 mm 4 mps 742 mmHg 84%
    10:00 -3°C° 0 mm 4 mps 741 mmHg 86%
    11:00 -3°C° 0 mm 4 mps 741 mmHg 88%
    12:00 -3°C° 0.2 mm 4 mps 741 mmHg 90%
    13:00 -2°C° 0.2 mm 5 mps 740 mmHg 93%
    14:00 -2°C° 0.2 mm 5 mps 740 mmHg 95%
    15:00 -2°C° 0.2 mm 4 mps 740 mmHg 96%
    16:00 -1°C° 0.2 mm 4 mps 739 mmHg 96%
    17:00 0°C° 0.2 mm 4 mps 739 mmHg 96%
    18:00 0°C° 0.1 mm 4 mps 739 mmHg 94%
    19:00 0°C° 0.1 mm 4 mps 739 mmHg 92%
    20:00 0°C° 0.1 mm 4 mps 739 mmHg 91%
    21:00 0°C° 0 mm 4 mps 739 mmHg 90%
    22:00 0°C° 0 mm 4 mps 738 mmHg 89%
    23:00 0°C° 0 mm 4 mps 738 mmHg 87%

    13 December, Friday

    Time Temperature Precipitation Wind Pressure Humidity
    00:00 0°C° 0 mm 4 mps 738 mmHg 88%
    01:00 0°C° 0 mm 4 mps 738 mmHg 88%
    02:00 0°C° 0 mm 4 mps 738 mmHg 88%
    03:00 0°C° 0 mm 4 mps 737 mmHg 88%
    04:00 0°C° 0 mm 4 mps 737 mmHg 89%
    05:00 0°C° 0 mm 4 mps 737 mmHg 89%
    06:00 -1°C° 0 mm 5 mps 736 mmHg 89%
    07:00 -1°C° 0 mm 5 mps 736 mmHg 89%
    08:00 -1°C° 0 mm 5 mps 736 mmHg 89%
    09:00 -1°C° 0 mm 5 mps 736 mmHg 90%
    10:00 -1°C° 0 mm 5 mps 735 mmHg 90%
    11:00 -1°C° 0 mm 5 mps 735 mmHg 91%
    12:00 -1°C° 0 mm 5 mps 735 mmHg 91%
    13:00 -1°C° 0 mm 5 mps 735 mmHg 92%
    14:00 -1°C° 0 mm 5 mps 734 mmHg 92%
    15:00 -1°C° 0 mm 5 mps 734 mmHg 92%
    16:00 -1°C° 0 mm 5 mps 734 mmHg 92%
    17:00 -2°C° 0 mm 5 mps 734 mmHg 92%
    18:00 -3°C° 0.2 mm 6 mps 734 mmHg 93%
    19:00 -3°C° 0.2 mm 6 mps 734 mmHg 94%
    20:00 -3°C° 0.2 mm 6 mps 733 mmHg 95%
    21:00 -2°C° 0.3 mm 5 mps 733 mmHg 95%
    22:00 -2°C° 0.3 mm 5 mps 733 mmHg 95%
    23:00 -2°C° 0.3 mm 5 mps 733 mmHg 95%

    14 December, Saturday

    Time Temperature Precipitation Wind Pressure Humidity
    00:00 -2°C° 0 mm 5 mps 733 mmHg 93%
    01:00 -2°C° 0 mm 5 mps 733 mmHg 92%
    02:00 -2°C° 0 mm 5 mps 733 mmHg 91%
    03:00 -2°C° 0 mm 5 mps 733 mmHg 92%
    04:00 -1°C° 0 mm 5 mps 733 mmHg 93%
    05:00 -1°C° 0 mm 5 mps 733 mmHg 94%
    06:00 -1°C° 0 mm 5 mps 733 mmHg 92%
    07:00 -1°C° 0 mm 5 mps 733 mmHg 90%
    08:00 -1°C° 0 mm 5 mps 733 mmHg 89%
    09:00 -1°C° 0 mm 5 mps 733 mmHg 88%
    10:00 0°C° 0 mm 5 mps 733 mmHg 87%
    11:00 0°C° 0 mm 5 mps 732 mmHg 86%
    12:00 0°C° 0 mm 5 mps 732 mmHg 85%
    13:00 0°C° 0 mm 5 mps 731 mmHg 85%
    14:00 +1°C° 0 mm 5 mps 731 mmHg 85%
    15:00 +1°C° 0.1 mm 5 mps 731 mmHg 87%
    16:00 +1°C° 0.1 mm 6 mps 731 mmHg 88%
    17:00 +1°C° 0.1 mm 6 mps 730 mmHg 89%
    18:00 +1°C° 0.4 mm 6 mps 730 mmHg 90%
    19:00 +1°C° 0.4 mm 6 mps 730 mmHg 90%
    20:00 +1°C° 0.4 mm 6 mps 729 mmHg 91%
    21:00 +1°C° 0.4 mm 6 mps 729 mmHg 90%
    22:00 +1°C° 0.4 mm 5 mps 729 mmHg 90%
    23:00 +2°C° 0.4 mm 5 mps 728 mmHg 90%

    15 December, Sunday

    Time Temperature Precipitation Wind Pressure Humidity
    00:00 +2°C° 0.1 mm 5 mps 728 mmHg 90%
    01:00 +2°C° 0.1 mm 5 mps 727 mmHg 89%
    02:00 +2°C° 0.1 mm 5 mps 727 mmHg 89%
    03:00 +1°C° 0.2 mm 5 mps 727 mmHg 89%
    04:00 +1°C° 0.2 mm 5 mps 727 mmHg 89%
    05:00 +1°C° 0.2 mm 5 mps 727 mmHg 89%
    06:00 0°C° 0.1 mm 5 mps 727 mmHg 89%
    07:00 0°C° 0.1 mm 5 mps 727 mmHg 89%
    08:00 0°C° 0.1 mm 4 mps 727 mmHg 89%
    09:00 0°C° 0 mm 4 mps 727 mmHg 87%
    10:00 0°C° 0 mm 4 mps 728 mmHg 85%
    11:00 -1°C° 0 mm 4 mps 728 mmHg 83%
    12:00 -1°C° 0 mm 4 mps 728 mmHg 85%
    13:00 -1°C° 0 mm 4 mps 728 mmHg 87%
    14:00 -1°C° 0 mm 5 mps 728 mmHg 89%
    15:00 0°C° 0.1 mm 5 mps 729 mmHg 89%
    16:00 0°C° 0.1 mm 5 mps 730 mmHg 89%
    17:00 -1°C° 0.1 mm 6 mps 731 mmHg 89%
    18:00 -1°C° 0 mm 6 mps 731 mmHg 86%
    19:00 -1°C° 0 mm 5 mps 731 mmHg 83%
    20:00 -1°C° 0 mm 5 mps 731 mmHg 80%
    21:00 -1°C° 0 mm 5 mps 730 mmHg 80%
    22:00 -2°C° 0 mm 4 mps 730 mmHg 80%
    23:00 -2°C° 0 mm 4 mps 730 mmHg 81%
    Show more